User: anonymous   Login
Location: Buckenweiler
(49.0667°N, 10.2500°E)
Time: 15:47:23
(UTC+00:00)
Language:

Cosmos 841 Rocket - Orbit

View from above orbital plane
View from above orbital plane
View from above satellite
View from above satellite

Ground track
Ground track

The orbit is defined by the following mean orbital elements,

1 09023U          26070.16362628 +.00000000 +00000-0 +98440-4 0 00005
2 09023  74.0442 327.1396 0015949  63.5066 296.7723 14.41185940    05
Epoch (UTC): 11 March 2026 03:55:37
Eccentricity: 0.0015949
inclination: 74.0442°
perigee height: 743 km
apogee height: 766 km
right ascension of ascending node: 327.1396°
argument of perigee: 63.5066°
revolutions per day: 14.41185940
mean anomaly at epoch: 296.7723°

The dashed part of the orbit path shows where the satellite is in the earth's shadow,  

DLR